Terminal Aerodrome Forecast
Issued by NWS

Home | Current Version | Previous Version | Text Only | Print | Product List | Glossary On
Versions: 1 2 3 4 5 6 7 8 9 10 11 12 13 14 15 16 17 18 19 20 21 22 23 24 25 26 27 28 29 30 31 32 33 34 35 36 37 38 39 40 41 42 43 44 45 46 47 48
000
FTUS46 KOTX 171137
TAFSFF
TAF
KSFF 171137Z 1712/1812 VRB04KT 5SM BR SCT080 BKN250
     FM171500 13003KT 2SM BR OVC007
     FM172100 VRB03KT P6SM VCSH SCT012 OVC060
     FM180100 15003KT 6SM BR VCSH SCT015 OVC025
     FM180400 20003KT 3SM -FZRA BR OVC007=

USA.gov is the U.S. government's official web portal to all federal, state and local government web resources and services.